Location: New Plymouth
(39.0670°S, 174.0830°E)
Time: 08:52:56
(UTC+12:00)

ISS - Pass Details

Date: 23 May 2021
Orbit: 417 x 422 km, 51.6° (Epoch: 17 June)

Event Time Altitude Azimuth Distance (km) Brightness Sun altitude
Exits shadow 06:29:05 - 297° (WNW) 1,593 -1.2 -11.2°
Reaches altitude 10° 06:29:16 10° 297° (WNW) 1,520 -1.3 -11.1°
Maximum altitude 06:32:39 60° 216° (SW) 499 -3.7 -10.5°
Drops below altitude 10° 06:36:04 10° 135° (SE) 1,534 -0.5 -9.9°
Sets 06:38:13 0° 130° (SE) 2,404 0.5 -9.5°
